Terug naar catalogus

KITA-53

ActiefSSO
NORAD 69904·PAYLOAD·🇺🇸 United States

Gelanceerd Jul 7, 2026 vanaf Vandenberg Space Force Base

Loading…

Volgende Passages (komende 24 uur)

TLE

VersSource: Space-Track

Epoch: Sep 14, 2026, 12:05 UTC

1 69904U 26156AM  26257.50352558  .00000844  00000-0  89434-4 0  9991
2 69904  97.7433 156.7636 0004639 281.0282  79.0415 14.91701155 10205

Volg KITA-53 in realtime met AllMySat

Download on the App Store